| time (UTC) | temp F | wind direction | speed MPH | gust MPH | rain 1hr in | rain 24hr in | rain mn in | humidity % | barometer mb |
| 20260502223042 | 56 | 346 | 1.0 | 4.0 | 0.00 | 0.00 | 0.00 | 53 | 1022.3 |
| 20260502221540 | 56 | 329 | 0.0 | 1.0 | 0.00 | 0.00 | 0.00 | 56 | 1022.5 |
| 20260502220037 | 56 | 352 | 1.0 | 5.0 | 0.00 | 0.00 | 0.00 | 52 | 1022.5 |
| 20260502214537 | 56 | 340 | 0.0 | 3.0 | 0.00 | 0.00 | 0.00 | 56 | 1022.6 |
| 20260502213051 | 57 | 359 | 0.0 | 0.0 | 0.00 | 0.00 | 0.00 | 56 | 1022.6 |
| 20260502211535 | 57 | 315 | 0.0 | 0.0 | 0.00 | 0.00 | 0.00 | 57 | 1022.6 |
| 20260502210037 | 57 | 336 | 0.0 | 2.0 | 0.00 | 0.00 | 0.00 | 58 | 1022.9 |
| 20260502204536 | 57 | 352 | 1.0 | 4.0 | 0.00 | 0.00 | 0.00 | 57 | 1023.1 |
| 20260502203039 | 57 | 323 | 0.0 | 1.0 | 0.00 | 0.00 | 0.00 | 61 | 1023.1 |
| 20260502201534 | 57 | 331 | 0.0 | 3.0 | 0.00 | 0.00 | 0.00 | 59 | 1023.0 |
| 20260502200054 | 56 | 338 | 0.0 | 3.0 | 0.00 | 0.00 | 0.00 | 60 | 1022.9 |
| 20260502194531 | 56 | 349 | 0.0 | 2.0 | 0.00 | 0.00 | 0.00 | 62 | 1023.0 |
| 20260502193031 | 56 | 352 | 0.0 | 1.0 | 0.00 | 0.00 | 0.00 | 65 | 1023.0 |
| 20260502191630 | 56 | 345 | 0.0 | 5.0 | 0.00 | 0.00 | 0.00 | 65 | 1022.8 |
| 20260502190030 | 56 | 341 | 1.0 | 5.0 | 0.00 | 0.00 | 0.00 | 65 | 1022.7 |
| 20260502184529 | 57 | 348 | 0.0 | 0.0 | 0.00 | 0.00 | 0.00 | 64 | 1022.8 |
| 20260502183033 | 58 | 217 | 0.0 | 0.0 | 0.00 | 0.00 | 0.00 | 62 | 1022.7 |
| 20260502181529 | 59 | 203 | 0.0 | 0.0 | 0.00 | 0.00 | 0.00 | 59 | 1022.6 |
| 20260502163021 | 66 | 155 | 1.0 | 5.0 | 0.00 | 0.00 | 0.00 | 48 | 1023.0 |
| 20260502161618 | 66 | 215 | 0.0 | 4.0 | 0.00 | 0.00 | 0.00 | 47 | 1023.2 |
| 20260502151513 | 68 | 118 | 0.0 | 7.0 | 0.00 | 0.00 | 0.00 | 45 | 1023.8 |
| 20260502130106 | 67 | 85 | 5.0 | 13.0 | 0.00 | 0.00 | 0.00 | 46 | 1025.6 |
| 20260502123054 | 68 | 200 | 3.0 | 8.0 | 0.00 | 0.00 | 0.00 | 45 | 1026.0 |
| 20260502121601 | 67 | 73 | 1.0 | 8.0 | 0.00 | 0.00 | 0.00 | 41 | 1025.9 |
| 20260502120112 | 68 | 148 | 4.0 | 11.0 | 0.00 | 0.00 | 0.00 | 41 | 1025.9 |
| 20260502114556 | 68 | 72 | 5.0 | 11.0 | 0.00 | 0.00 | 0.00 | 40 | 1026.1 |
| 20260502113109 | 69 | 159 | 4.0 | 8.0 | 0.00 | 0.00 | 0.00 | 39 | 1026.3 |
| 20260502111548 | 67 | 163 | 4.0 | 9.0 | 0.00 | 0.00 | 0.00 | 39 | 1026.3 |
| 20260502110049 | 67 | 143 | 6.0 | 13.0 | 0.00 | 0.00 | 0.00 | 38 | 1026.5 |
| 20260502104546 | 67 | 135 | 6.0 | 11.0 | 0.00 | 0.00 | 0.00 | 40 | 1026.7 |
| 20260502103108 | 67 | 137 | 3.0 | 13.0 | 0.00 | 0.00 | 0.00 | 39 | 1026.9 |
| 20260502101550 | 67 | 113 | 7.0 | 14.0 | 0.00 | 0.00 | 0.00 | 38 | 1026.9 |
| 20260502071525 | 63 | 57 | 2.0 | 9.0 | 0.00 | 0.00 | 0.00 | 49 | 1027.3 |
| 20260502070023 | 63 | 77 | 2.0 | 7.0 | 0.00 | 0.00 | 0.00 | 51 | 1027.4 |
| 20260502064520 | 62 | 323 | 3.0 | 6.0 | 0.00 | 0.00 | 0.00 | 54 | 1027.3 |
| 20260502063017 | 61 | 55 | 2.0 | 4.0 | 0.00 | 0.00 | 0.00 | 61 | 1027.0 |
| 20260502061513 | 60 | 96 | 0.0 | 2.0 | 0.00 | 0.00 | 0.00 | 66 | 1027.1 |
| 20260502060011 | 60 | 37 | 0.0 | 0.0 | 0.00 | 0.00 | 0.00 | 66 | 1027.0 |
| 20260502054506 | 58 | 11 | 0.0 | 0.0 | 0.00 | 0.00 | 0.00 | 66 | 1026.9 |
| 20260502053005 | 56 | 61 | 0.0 | 5.0 | 0.00 | 0.00 | 0.00 | 68 | 1026.7 |
| 20260502051505 | 55 | 15 | 3.0 | 7.0 | 0.00 | 0.00 | 0.00 | 69 | 1026.7 |
| 20260502050002 | 54 | 323 | 4.0 | 7.0 | 0.00 | 0.00 | 0.00 | 70 | 1026.5 |
| 20260502044501 | 54 | 333 | 3.0 | 8.0 | 0.00 | 0.00 | 0.00 | 70 | 1026.7 |
| 20260502043108 | 53 | 18 | 4.0 | 7.0 | 0.00 | 0.00 | 0.00 | 70 | 1026.6 |
| 20260502041558 | 53 | 298 | 4.0 | 9.0 | 0.00 | 0.00 | 0.00 | 71 | 1026.8 |
| 20260502040055 | 53 | 307 | 3.0 | 6.0 | 0.00 | 0.00 | 0.00 | 70 | 1026.8 |
| 20260502034554 | 53 | 326 | 1.0 | 4.0 | 0.00 | 0.00 | 0.00 | 71 | 1026.7 |
| 20260502033051 | 54 | 333 | 1.0 | 5.0 | 0.00 | 0.00 | 0.00 | 70 | 1026.6 |
| 20260502031549 | 54 | 335 | 0.0 | 4.0 | 0.00 | 0.00 | 0.00 | 69 | 1026.6 |
| 20260502030100 | 55 | 336 | 0.0 | 5.0 | 0.00 | 0.00 | 0.00 | 68 | 1026.7 |
| 20260502024546 | 55 | 358 | 0.0 | 6.0 | 0.00 | 0.00 | 0.00 | 67 | 1026.6 |
| 20260502023044 | 56 | 8 | 2.0 | 7.0 | 0.00 | 0.00 | 0.00 | 66 | 1026.6 |
| 20260502021542 | 56 | 333 | 3.0 | 7.0 | 0.00 | 0.00 | 0.00 | 65 | 1026.5 |
| 20260502020042 | 56 | 341 | 0.0 | 4.0 | 0.00 | 0.00 | 0.00 | 65 | 1026.6 |
| 20260502014541 | 57 | 13 | 1.0 | 5.0 | 0.00 | 0.00 | 0.00 | 64 | 1026.6 |
| 20260502013039 | 56 | 296 | 3.0 | 7.0 | 0.00 | 0.00 | 0.00 | 68 | 1026.5 |
| 20260502011537 | 56 | 13 | 2.0 | 7.0 | 0.00 | 0.00 | 0.00 | 69 | 1026.6 |
| 20260502010041 | 56 | 2 | 2.0 | 6.0 | 0.00 | 0.00 | 0.00 | 68 | 1026.6 |
| 20260502004535 | 57 | 347 | 3.0 | 7.0 | 0.00 | 0.00 | 0.00 | 67 | 1026.6 |
| 20260502003033 | 57 | 302 | 3.0 | 8.0 | 0.00 | 0.00 | 0.00 | 67 | 1026.6 |
| 20260502001531 | 57 | 353 | 4.0 | 8.0 | 0.00 | 0.00 | 0.00 | 67 | 1026.6 |
| 20260502000027 | 57 | 316 | 4.0 | 8.0 | 0.00 | 0.00 | 0.00 | 66 | 1026.7 |
| 20260501234531 | 57 | 42 | 2.0 | 8.0 | 0.00 | 0.00 | 0.00 | 66 | 1026.6 |
| 20260501233026 | 57 | 297 | 3.0 | 7.0 | 0.00 | 0.00 | 0.00 | 66 | 1026.8 |
| 20260501231523 | 58 | 327 | 4.0 | 8.0 | 0.00 | 0.00 | 0.00 | 66 | 1026.7 |
| 20260501230022 | 58 | 46 | 3.0 | 8.0 | 0.00 | 0.00 | 0.00 | 67 | 1026.6 |
| 20260501224521 | 58 | 328 | 3.0 | 7.0 | 0.00 | 0.00 | 0.00 | 68 | 1026.5 |